Location: Kansas State University
(39.1938°N, 96.5858°W)
Time: 11:19:27
(UTC-06:00)

Daily predictions for brighter satellites

Satellite Brightness Start Highest point End
(mag) Time Altitude Azimuth Time Altitude Azimuth Time Altitude Azimuth
NOAA 12 4.4 18:33:56 10° SE 18:39:01 49° ENE 18:44:09 10° N
Cosmos 1975 Rocket 4.1 18:37:01 10° NNW 18:41:13 52° W 18:45:24 10° S
GPS 2-04 Rocket1 4.5 18:39:16 10° SSW 18:42:34 22° SSE 18:45:55 10° ESE
SKYMED 2 3.9 18:40:40 10° N 18:45:01 74° WNW 18:49:19 10° SSW
Cosmos 44 4.4 18:42:45 10° NW 18:46:56 44° WSW 18:51:00 10° S
GEOS 3 Rocket 4.4 18:42:38 10° NE 18:47:19 32° ESE 18:52:00 10° S
METEOR-M 4.2 18:44:41 10° SSE 18:49:56 61° ENE 18:55:12 10° N
Cosmos 1536 4.1 18:47:30 10° SE 18:50:26 20° E 18:53:22 10° NE
H-2A R/B 4.3 18:48:27 10° ESE 18:50:44 16° ENE 18:53:01 10° NNE
COSMOS 2428 3.9 18:46:37 10° N 18:50:56 22° NE 18:55:15 10° ESE
Meteor 2-4 Rocket 4.5 18:49:46 10° NNE 18:54:29 28° ENE 18:59:05 10° SE
Cosmos 1633 2.9 18:51:14 10° SSE 18:54:44 43° E 18:58:15 10° NNE
Okean 1 3.3 18:51:57 10° N 18:56:02 81° E 19:00:05 10° S
Cosmos 1812 3.4 18:52:26 10° NNW 18:56:15 59° W 19:00:01 10° S
Cosmos 1536 Rocket 3.5 18:55:44 10° N 19:00:13 74° E 19:04:41 10° SSE
Cosmos 1818 4.1 19:00:28 10° SW 19:05:50 61° NW 19:11:15 10° NNE
Cosmos 407 Rocket 4.4 19:01:29 10° SW 19:06:36 54° WNW 19:11:49 10° N
Cosmos 2360 Rocket 2.2 19:04:54 10° NNW 19:10:31 64° ENE 19:16:08 10° SSE
Cosmos 2219 3.8 19:05:45 10° S 19:10:56 36° ESE 19:16:07 10° NE
Cosmos 676 Rocket 4.3 19:06:02 10° SSW 19:11:11 71° WNW 19:16:25 10° NNE
Cosmos 2219 Rocket 3.6 19:08:05 10° N 19:11:51 18° NE 19:13:36 16° ENE
Cosmos 1570 Rocket 4.4 19:14:16 10° N 19:19:13 41° ENE 19:24:08 10° SE
Meteor 1-11 Rocket 3.7 19:15:01 10° S 19:20:45 73° E 19:26:39 10° NNE
BREEZE-M DEB (TANK) 2.7 19:18:15 10° SW 19:22:46 50° SE 19:23:46 31° E
Cosmos 1602 3.8 19:20:13 10° S 19:24:05 80° W 19:28:00 10° N
Cosmos 1140 Rocket 3.5 19:20:51 10° SSW 19:25:58 86° WNW 19:31:10 10° NNE
Resurs 01 Rocket 1.7 19:21:58 10° SSE 19:26:15 52° ENE 19:30:33 10° N
Cosmos 1300 Rocket 3.6 19:22:59 10° S 19:27:23 83° W 19:31:51 10° N
DELTA 2 R/B (1) 3.9 19:22:01 10° W 19:27:35 64° SSW 19:31:31 20° ESE
Abrixas rocket 2.9 19:25:51 10° SSW 19:28:59 38° SE 19:29:39 34° ESE
ATLAS CENTAUR R/B 3.2 19:27:16 10° S 19:30:46 20° SE 19:30:46 20° SE
BREEZE-M DEB (TANK) 4.0 19:28:17 10° NW 19:31:25 41° NNE 19:35:01 23° E
Cosmos 614 Rocket 3.8 19:28:36 10° SSW 19:33:40 84° ESE 19:38:46 10° NNE
ALOS 2.2 19:30:30 10° SSE 19:35:09 88° E 19:39:52 10° NNW
FREGAT/IRIS 4.2 19:34:06 10° S 19:37:00 38° W 19:39:56 10° NNW
Spot 2 Rocket 3.4 19:36:08 10° SSE 19:41:10 74° ENE 19:46:14 10° N
Helios 1A 3.4 19:40:55 37° E 19:41:26 39° ENE 19:45:19 10° N
Cosmos 1340 4.1 19:38:44 10° NNW 19:42:18 40° W 19:45:51 10° SSW
Resurs 1-3 3.5 19:39:36 10° SSE 19:43:56 69° ENE 19:48:19 10° N
Cosmos 2181 Rocket 4.3 19:37:45 10° NNW 19:43:59 70° W 19:50:17 10° S
Cosmos 2333 Rocket 3.2 19:41:06 10° N 19:45:56 27° NE 19:46:14 27° ENE
Cosmos 2208 Rocket 4.0 19:40:54 10° NNW 19:46:20 67° ENE 19:50:30 17° SSE
USA 229 DEB 4.0 19:44:31 10° NNW 19:51:28 51° NE 19:54:32 32° ESE
USA 229 4.0 19:44:37 10° NNW 19:51:33 51° NE 19:54:36 32° ESE
Cosmos 1850 Rocket 4.1 19:48:07 10° SSW 19:53:24 78° WNW 19:58:46 10° NNE
Helios 1B rocket 2.4 19:50:56 10° NNE 19:55:02 56° E 19:59:06 10° S
Cosmos 2074 Rocket 3.9 19:51:13 10° S 19:57:28 84° E 20:03:46 10° N
Envisat 3.9 19:58:41 30° NE 19:58:41 30° NE 20:02:08 10° N
Tiangong 2 3.5 19:55:46 10° WSW 19:57:44 16° SW 19:58:32 15° SSW
Okean 2 3.9 19:55:04 10° N 19:58:14 43° NE 19:58:14 43° NE
Cosmos 2184 Rocket 3.9 19:54:11 10° S 20:00:30 85° E 20:06:48 10° N
Okean 1 Rocket 4.2 19:58:07 10° SSW 20:02:23 44° W 20:06:43 10° N
Genesis I 3.1 19:58:54 10° NNW 20:02:51 86° WSW 20:03:08 76° SSE
SAR-Lupe-4 3.6 20:04:45 72° NNW 20:04:45 72° NNW 20:08:01 10° NNW
Hubble Space Telescope 3.2 20:06:00 10° SSW 20:06:47 12° S 20:06:47 12° S
Meteor 1-5 Rocket 4.3 20:02:02 10° S 20:08:01 87° W 20:13:58 10° N
BREEZE-M DEB (TANK) 2.7 20:13:37 10° WNW 20:16:36 86° SW 20:17:19 64° SE
Gbstr 26 Del rocket 4.0 20:15:54 10° W 20:19:19 32° NNW 20:19:28 32° NNW
CZ-2D R/B 4.0 20:18:53 45° SW 20:19:32 51° W 20:23:16 10° NNW
Nadezhda 3 Rocket 3.9 20:15:26 10° N 20:21:26 58° ENE 20:21:26 58° ENE
GPS 2-04 Rocket1 3.9 20:17:51 10° WSW 20:21:01 39° SSW 20:21:01 39° SSW
Cosmos 1025 Rocket 3.8 20:18:49 10° NNW 20:23:05 51° W 20:25:44 21° SSW
NOSS 3-1 (C) 4.4 20:16:37 10° NNW 20:23:41 42° NE 20:24:23 41° ENE
H-2A R/B 4.5 20:21:38 11° SSW 20:24:45 31° W 20:28:06 10° NNW
Cosmos 2154 Rocket 3.9 20:23:09 10° S 20:29:28 76° E 20:35:49 10° N
Cosmos 2285 Rocket 4.0 20:24:04 10° NNW 20:30:32 83° WSW 20:32:47 43° S
Meteor 2-13 Rocket 4.5 20:28:40 10° SSW 20:34:42 77° W 20:40:49 10° N
COSMOS 2428 3.2 20:30:01 10° NNW 20:35:34 56° WSW 20:37:45 35° SSW
Cosmos 2237 Rocket 3.1 20:34:06 10° NNW 20:37:45 37° N 20:37:45 37° N
NOSS 0 Rocket 4.1 20:47:15 10° NNW 20:52:28 66° NNW 20:52:28 66° NNW
Cosmos 2219 Rocket 2.7 20:50:46 10° NNW 20:55:22 57° WNW 20:55:22 57° WNW
SL-16 R/B 4.3 21:07:48 10° N 21:09:14 17° N 21:09:14 17° N
Cosmos 2333 Rocket 3.8 21:24:56 10° NW 21:28:17 32° WNW 21:28:17 32° WNW
